Miscellaneous Local Product
Issued by NWS Hastings, NE

Home | Current Version | Previous Version | Graphics & Text | Print | Product List | Glossary On
Versions: 1 2 3 4 5 6 7 8 9 10 11 12 13 14 15 16 17 18 19 20 21 22 23 24 25 26 27 28 29 30 31 32 33 34 35 36 37 38 39 40 41 42 43 44 45 46 47 48 49 50
000
AXUS43 KGID 260202
MISGRI

GID CWA HOURLY WEATHER ROUNDUP
NATIONAL WEATHER SERVICE HASTINGS NE
900 PM CDT WED MAR 25 2015

NOTE: "FAIR" INDICATES FEW OR NO CLOUDS BELOW 12,000 FEET WITH NO
SIGNIFICANT WEATHER AND/OR OBSTRUCTIONS TO VISIBILITY.

...SOUTH CENTRAL NEBRASKA...

CITY           SKY/WX    TMP DP  RH WIND       PRES   REMARKS
GRAND ISLAND   FAIR      37  25  61 N9        30.20R WCI  30
HASTINGS       FAIR      36  26  67 N7        30.18R WCI  30
KEARNEY        FAIR      39  21  48 N12       30.21R WCI  32
ORD            FAIR      36  21  54 NW8       30.21R WCI  30
YORK           FAIR      37  30  75 N9        30.18R WCI  31
AURORA         FAIR      36  29  77 N6        30.19R WCI  31
LEXINGTON      FAIR      38  21  51 N9        30.20R WCI  31
HOLDREGE       FAIR      39  22  51 N8        30.19R WCI  33
HEBRON         FAIR      40  32  72 N7        30.18R

...NEBRASKA PANHANDLE...

CITY           SKY/WX    TMP DP  RH WIND       PRES   REMARKS
CHADRON        MOCLDY    37  24  59 E6        30.22R WCI  32
ALLIANCE       FAIR      39  18  42 NW10      30.20R WCI  32
SCOTTSBLUFF    CLOUDY    44  26  49 N7        30.22R
SIDNEY         MOCLDY    41  22  46 N9        30.21R

...WESTERN AND NORTH CENTRAL NEBRASKA...

CITY           SKY/WX    TMP DP  RH WIND       PRES   REMARKS
VALENTINE      FAIR      34  22  61 N7        30.23R WCI  28
AINSWORTH      FAIR      32  22  66 N6        30.23R WCI  27
ONEILL         FAIR      37  23  57 N9        30.21R WCI  30
BROKEN BOW     FAIR      37  22  54 N12       30.21R WCI  29
IMPERIAL         N/A     38  21  50 NE6       30.21R WCI  33
NORTH PLATTE   FAIR      36  20  52 N7        30.22R WCI  30
MCCOOK         FAIR      37  21  52 N8        30.21R WCI  31

...EASTERN NEBRASKA...

CITY           SKY/WX    TMP DP  RH WIND       PRES   REMARKS
NORFOLK        FAIR      39  25  57 NW15      30.19R WCI  31
SO SIOUX CITY  FAIR      40  25  55 NW13      30.17R WCI  32
TEKAMAH        FAIR      34  26  72 W9        30.17R WCI  27
COLUMBUS       FAIR      37  25  60 N10       30.20R WCI  30
ALBION         FAIR      37  25  60 N8        30.20R WCI  31
OMAHA EPPLEY   CLOUDY    36  30  79 N5        30.17R WCI  32
OFFUTT AFB     FAIR      41  29  62 N6        30.16R
MILLARD        FAIR      42  29  60 N3        30.16S
LINCOLN        FAIR      37  29  72 N6        30.19R WCI  32
NEBRASKA CITY  FAIR      39  31  71 N8        30.17R WCI  34
BEATRICE       FAIR      38  33  82 N3        30.17R
FALLS CITY     MOCLDY    41  35  79 N6        30.16R

...NORTHERN KANSAS...

CITY           SKY/WX    TMP DP  RH WIND       PRES   REMARKS
GOODLAND       FAIR      32  28  85 NW10      30.23R WCI  24
HILL CITY      FAIR      39  33  79 N6        30.21R WCI  35
NORTON         CLEAR     36  27  69 N7        30.20R WCI  30
PHILLIPSBURG   CLEAR     43  30  61 N3        30.20R
SMITH CENTER   CLEAR     37  28  70 N6        30.20R WCI  33
BELOIT         CLOUDY    41  34  75 N5        30.17S
HAYS           CLOUDY    39  30  70 N8        30.19R WCI  34
RUSSELL        CLOUDY    39  37  92 N8        30.17R WCI  33
CONCORDIA      MOCLDY    41  35  79 N7        30.16S
SALINA         CLOUDY    41  36  82 N13       30.17R
TOPEKA         LGT RAIN  41  38  89 N9        30.15R



USA.gov is the U.S. government's official web portal to all federal, state and local government web resources and services.